Weather observations for the past three days for
Fort Worth Spinks Airport
Imperial (Metric)
Date Time (cdt) Wind (mph) Vis. (mi.) Weather Sky Cond. Temperature (ºF) Relative Humidity Wind Chill (°F) Heat Index (°F) Pressure Precipitation (in)
Air Dwpt 6 hour altimeter (in) sea level (mb) 1 hr 3 hr 6 hr
Max. Min.
24 07:47 Calm 1.00 Overcast OVC003 73.4 71.6 94% 30.15 0.0
24 06:47 Calm 0.13 Overcast OVC001 73.4 71.6 94% 30.14 0.0
24 06:35 Calm 0.00 Overcast OVC001 73 71.8 96% 30.14 0.0
24 06:15 Calm 0.00 Overcast OVC001 73 71.8 96% 30.14 0.0
24 05:55 Calm 0.00 Overcast OVC001 73 71.8 96% 30.13 0.0
24 05:35 Calm 0.00 Overcast OVC003 73 71.8 96% 30.12 0.0
24 05:15 Calm 0.00 Overcast OVC003 72.5 71.4 96% 30.12 0.0
24 04:55 Calm 0.00 Overcast OVC003 72.9 71.6 96% 30.12 0.0
24 04:35 Calm 0.00 Overcast BKN003 OVC017 72.5 71.1 95% 30.13 0.0
24 04:15 Calm 0.00 NULL NULL 72.1 70.9 96% 30.12 0.0
24 03:55 Calm 0.00 Overcast OVC001 71.8 70.7 96% 30.12 0.0
24 03:35 SE 3 0.00 Overcast OVC001 71.8 70.7 96% 30.12 0.0
24 03:15 E 3 0.00 Overcast OVC001 71.8 70.7 96% 30.12 0.0
24 02:55 Calm 0.00 NULL NULL 71.2 70 96% 30.11 0.0
24 02:35 Calm 0.00 NULL NULL 70.9 69.8 96% 30.11 0.0
24 02:15 Calm 0.00 NULL NULL 71.8 70.3 95% 30.11 0.0
24 01:55 Calm 0.00 NULL NULL 72.1 70.9 96% 30.11 0.0
24 01:35 Calm 0.00 NULL NULL 71.4 69.6 94% 30.11 0.0
24 01:15 Calm 0.00 NULL NULL 73 71.6 95% 30.11 0.0
24 00:55 Calm 0.00 NULL NULL 72.5 70.3 93% 30.11 0.0
24 00:35 Calm 0.00 NULL NULL 73 71.1 94% 30.12 0.0
24 00:15 Calm 0.00 NULL NULL 73.2 70.9 92% 30.11 0.0
23 23:55 E 3 0.00 NULL NULL 73 70.7 92% 30.11 0.0
23 23:35 Calm 0.00 NULL NULL 73.4 70.9 92% 30.11 0.0
23 23:15 SE 5 0.00 NULL NULL 73.9 70.9 90% 30.1 0.0
23 22:55 Calm 0.00 NULL NULL 74.5 70.9 89% 30.1 0.0
23 22:35 Calm 0.00 NULL NULL 74.8 71.1 88% 30.09 0.0
23 22:15 Calm 0.00 NULL NULL 75.2 70.5 85% 75 30.08 0.0
23 21:55 Calm 0.00 Fair CLR 75.7 70.5 84% 76 30.07 0.0
23 21:35 SE 7 0.00 Fair CLR 76.6 70.7 82% 78 30.07 0.0
23 21:15 SE 7 0.00 Fair CLR 77.4 70.5 80% 79 30.06 0.0
23 20:55 SE 5 0.00 Fair CLR 77 68.5 75% 79 30.06 0.0
23 20:35 SE 5 0.00 Fair CLR 78.3 68 71% 80 30.05 0.0
23 20:15 SE 6 0.00 Fair CLR 80.1 68.5 68% 83 30.06 0.0
23 19:55 SE 6 0.00 Fair CLR 81.9 67.6 62% 85 30.05 0.0
23 18:52 E 8 10.00 Fair CLR 84.2 66.2 55% 87 30.04 0.0
23 17:49 E 7 10.00 Fair CLR 86 68 55% 89 30.04 0.0
23 16:48 SE 8 10.00 Fair CLR 84.2 68 58% 87 30.05 0.0
23 15:49 SE 12 10.00 Partly Cloudy SCT060 84.2 69.8 62% 88 30.06 0.0
23 14:47 SE 13 10.00 Partly Cloudy SCT035 SCT060 84.2 71.6 66% 90 30.07 0.0
23 13:52 NE 5 10.00 Partly Cloudy SCT045 87.8 68 52% 91 30.07 0.0
23 12:52 NE 3 10.00 Mostly Cloudy BKN017 84.2 68 58% 87 30.08 0.0
23 11:49 Calm 7.00 Mostly Cloudy BKN017 80.6 69.8 70% 84 30.1 0.0
23 10:52 Calm 7.00 Mostly Cloudy BKN009 77 73.4 89% 78 30.09 0.0
23 09:50 Calm 5.00 Fog/Mist OVC007 75.2 73.4 94% 74 30.09 0.0
23 08:47 Calm 5.00 Fog/Mist BKN008 OVC016 73.4 73.4 100% 30.07 0.0
23 07:48 Calm 5.00 Fog/Mist OVC006 73.4 71.6 94% 30.07 0.0
23 06:49 Calm 3.00 Light Rain BKN006 OVC014 71.6 71.6 100% 30.04 0.0
23 06:35 SE 5 0.00 Overcast BKN006 OVC022 72.9 71.6 96% 30.04 0.0 0.15
23 06:15 Calm 0.00 Overcast OVC008 73 71.8 96% 30.04 0.0
23 05:55 Calm 0.00 Overcast BKN008 BKN012 OVC025 72.9 71.6 96% 30.04 0.0 0.02
23 05:35 Calm 0.00 NULL NULL 72.9 71.6 96% 30.04 0.0 0.02
23 05:15 Calm 0.00 NULL NULL 73 71.8 96% 30.04 0.0 0.01
23 04:55 Calm 0.00 NULL NULL 73 71.8 96% 30.04 0.0
23 04:35 Calm 0.00 NULL NULL 73 71.8 96% 30.03 0.0
23 04:15 Calm 0.00 NULL NULL 73 71.8 96% 30.03 0.0
23 03:55 Calm 0.00 NULL NULL 73 71.8 96% 30.02 0.0
23 03:35 Calm 0.00 NULL NULL 72.7 71.2 95% 30.02 0.0
23 03:15 Calm 0.00 NULL NULL 72.9 71.4 95% 30.02 0.0
23 02:55 Calm 0.00 NULL NULL 72.1 70.7 95% 30.02 0.0
23 02:35 Calm 0.00 NULL NULL 72.7 71.1 95% 30.02 0.0
23 02:15 Calm 0.00 NULL NULL 73 71.2 94% 30.02 0.0
23 01:55 Calm 0.00 NULL NULL 72.9 70.9 94% 30.02 0.0
23 01:35 Calm 0.00 NULL NULL 73 71.1 94% 30.02 0.0
23 01:15 Calm 0.00 NULL NULL 73 71.1 94% 30.02 0.0
23 00:55 Calm 0.00 NULL NULL 73 71.1 94% 30.02 0.0
23 00:35 Calm 0.00 NULL NULL 73 71.1 94% 30.03 0.0
23 00:15 Calm 0.00 NULL NULL 72.9 70.9 94% 30.03 0.0
22 23:55 Calm 0.00 NULL NULL 72.1 70.2 94% 30.03 0.0
22 23:35 S 5 0.00 NULL NULL 72.1 70.2 94% 30.03 0.0
22 23:15 Calm 0.00 NULL NULL 72.1 70.2 94% 30.03 0.0
22 22:55 S 8 0.00 NULL NULL 72.1 70 93% 30.02 0.0 0.01
22 22:35 SW 5 0.00 NULL NULL 72 70 94% 30.03 0.0
22 22:15 S 8 0.00 NULL NULL 72.5 70.2 92% 30.03 0.0
22 21:55 SW 7 0.00 NULL NULL 73 71.1 94% 30.03 0.0 0.05
22 21:35 SW 7 0.00 NULL NULL 73 70.9 93% 30.03 0.0 0.04
22 21:15 Calm 0.00 Overcast BKN055 BKN065 OVC085 73.6 71.4 93% 30.02 0.0 0.01
22 20:55 Calm 0.00 NULL NULL 73.4 71.2 93% 30.02 0.0
22 20:35 Calm 0.00 NULL NULL 73.4 70.9 92% 30 0.0
22 20:15 S 5 0.00 NULL NULL 73.4 70.9 92% 30 0.0
22 19:55 SE 6 0.00 NULL NULL 73.8 71.2 92% 29.99 0.0
22 18:50 SE 7 10.00 Mostly Cloudy SCT040 BKN070 75.2 71.6 89% 75 30 0.0
22 17:50 SE 8 10.00 Rain SCT012 BKN032 OVC060 77 69.8 79% 79 29.98 0.0
22 17:17 SE 16 G 21 10.00 Overcast BKN008 BKN037 OVC095 80.6 71.6 74% 85 29.99 0.0
22 16:50 SE 17 G 21 10.00 Partly Cloudy SCT016 SCT047 84.2 73.4 70% 91 29.98 0.0
22 15:55 SE 9 10.00 Mostly Cloudy BKN047 82.4 71.6 70% 87 29.98 0.0
22 14:47 NE 6 10.00 Overcast SCT028 BKN047 OVC060 84.2 69.8 62% 88 29.98 0.0
22 13:47 NE 5 10.00 Overcast SCT027 OVC055 86 71.6 62% 92 30 0.0
22 12:55 N 6 10.00 Partly Cloudy SCT055 84.2 71.6 66% 90 30.02 0.0
22 11:47 Calm 10.00 Mostly Cloudy SCT015 BKN060 BKN070 82.4 73.4 74% 88 30.04 0.0
22 10:55 NE 5 10.00 Partly Cloudy SCT016 SCT060 80.6 71.6 74% 85 30.04 0.0
22 09:55 E 7 10.00 Mostly Cloudy BKN014 80.6 71.6 74% 85 30.04 0.0
22 08:47 NE 7 10.00 A Few Clouds FEW020 78.8 73.4 84% 82 30.02 0.0
22 07:51 Calm 10.00 Fair CLR 75.2 73.4 94% 74 30.01 0.0
22 06:50 Calm 10.00 Mostly Cloudy BKN100 75.2 71.6 89% 75 30 0.0
22 06:35 Calm 0.00 Mostly Cloudy BKN110 74.8 72.5 92% 30 0.0
22 06:15 SE 3 0.00 NULL NULL 74.8 72.5 92% 30 0.0
22 05:55 SE 3 0.00 NULL NULL 74.8 72.5 92% 30 0.0
22 05:35 Calm 0.00 NULL NULL 74.8 72.5 92% 30 0.0
22 05:15 SE 3 0.00 NULL NULL 74.8 72.1 91% 29.99 0.0
22 04:55 Calm 0.00 NULL NULL 74.8 72.1 91% 29.99 0.0
22 04:35 E 3 0.00 NULL NULL 74.8 71.8 90% 29.99 0.0
22 04:15 Calm 0.00 NULL NULL 74.8 71.6 90% 29.98 0.0
22 03:55 S 3 0.00 NULL NULL 75.2 71.6 89% 75 29.98 0.0
22 03:35 S 5 0.00 NULL NULL 74.8 71.6 90% 29.97 0.0
22 03:15 SW 3 0.00 NULL NULL 75 71.2 88% 74 29.98 0.0
22 02:55 Calm 0.00 Partly Cloudy SCT039 75.7 71.4 87% 76 29.99 0.0
22 02:35 Calm 0.00 NULL NULL 75.2 70.7 86% 75 29.99 0.0
22 02:15 Calm 0.00 Fair CLR 75.9 70.7 84% 77 29.99 0.0
22 01:55 Calm 0.00 Partly Cloudy SCT045 76.6 70.7 82% 78 30 0.0
22 01:35 E 3 0.00 Mostly Cloudy BKN045 BKN050 BKN120 77.5 71.1 81% 79 30 0.0
22 01:15 Calm 0.00 Overcast SCT050 OVC120 77 70.7 81% 79 30.01 0.0
22 00:55 SE 6 0.00 Mostly Cloudy BKN120 77 70.7 81% 79 30.02 0.0
22 00:35 Calm 0.00 Overcast SCT041 BKN050 OVC110 77.4 71.8 83% 79 30.02 0.0
22 00:15 Calm 0.00 Mostly Cloudy BKN041 BKN048 77 71.4 83% 78 30.02 0.0
21 23:55 E 3 0.00 Partly Cloudy SCT048 77 71.4 83% 78 30.02 0.0
21 23:35 Calm 0.00 Fair CLR 77.5 71.4 82% 79 30.02 0.0
21 23:15 Calm 0.00 Fair CLR 77.9 71.6 81% 80 30.02 0.0
21 22:55 Calm 0.00 Fair CLR 77.7 71.4 81% 80 30.01 0.0
21 22:35 Calm 0.00 Fair CLR 78.3 71.8 81% 81 30.02 0.0
21 22:15 SE 3 0.00 Fair CLR 78.3 71.1 79% 81 30.02 0.0
21 21:55 S 3 0.00 Fair CLR 78.8 70.5 76% 82 30 0.0
21 21:35 SE 3 0.00 Fair CLR 80.1 70.9 74% 84 30 0.0
21 21:15 E 3 0.00 Fair CLR 80.1 70.7 73% 83 29.99 0.0
21 20:55 SE 3 0.00 Fair CLR 80.1 70.3 72% 83 29.98 0.0
21 20:35 Calm 0.00 Fair CLR 83.5 69.8 64% 88 29.99 0.0
21 20:15 E 3 0.00 Partly Cloudy SCT085 84.7 69.3 60% 89 29.97 0.0
21 19:55 SE 5 0.00 Partly Cloudy SCT085 86.9 68.7 55% 91 29.98 0.0
21 18:47 E 6 10.00 Partly Cloudy SCT085 89.6 66.2 46% 92 29.97 0.0
21 17:47 E 5 10.00 Partly Cloudy SCT085 87.8 66.2 49% 90 29.98 0.0
21 16:50 E 7 10.00 Fair CLR 86 66.2 52% 88 29.97 0.0
21 15:56 NE 6 10.00 Fair CLR 87.8 66.2 49% 90 29.98 0.0
21 14:48 Calm 10.00 A Few Clouds FEW080 87.8 66.2 49% 90 30 0.0
21 13:50 E 9 10.00 Mostly Cloudy BKN049 BKN060 82.4 69.8 66% 86 30.04 0.0
21 12:53 S 3 10.00 Mostly Cloudy BKN080 82.4 71.6 70% 87 30.05 0.0
21 11:46 S 10 10.00 Mostly Cloudy BKN065 75.2 71.6 89% 75 30.06 0.0
21 10:55 S 9 10.00 Mostly Cloudy FEW008 BKN065 75.2 71.6 89% 75 30.06 0.0
21 09:55 S 5 10.00 Mostly Cloudy BKN050 71.6 69.8 94% 30.08 0.0
21 08:50 SE 6 10.00 Mostly Cloudy BKN070 73.4 71.6 94% 30.06 0.0
Date Time (cdt) Wind (mph) Vis. (mi.) Weather Sky Cond. Air Dwpt Max. Min. Relative Humidity Wind Chill (°F) Heat Index (°F) altimeter (in) sea level (mb) 1 hr 3 hr 6 hr
6 hour
Temperature (ºF) Pressure Precipitation (in)